Showing default

EUTELSAT 10B, 54259

Orbit data source: Space-Track

EUTELSAT 10B, 54259 is a payload satellite owned by EutelsatSA (FR) in GEO that was launched on Wed, 23 Nov 2022 UTC via an FALCON 9 launch vehicle from the Air Force Eastern Test Range (AFETR). Payload-class satellites include a variety of spacecraft equipped with specific instruments for various scientific and technological missions. These include communications satellites like Starlink; space stations such as the ISS; scientific satellites like the Hubble; Earth observation satellites from companies like Planet Labs, Umbra, and HawkEye 360; GPS; miniature CubeSats for education and research; and military/defense satellites.

Not visible in the next 10 days
Identifier
54259, 2022-157A
Orbit
GEO
Country
Flag of FRFR / EUTE
Related business
Manufacturer
Thales Alenia
Mission
Operational Commercial Communications
Bus & Motor
SPACEBUS NEO200, XPS/PPS-5000
Mass
4,500 kg wet, ~4,200 kg dry
Launch date (UTC)
2022-11-23 (4 years ago)
Launch vehicle
FALCON 9
Launch site
Air Force Eastern Test Range (AFETR)
Object type
Payload
Rocket body
Debris
Shape & HBR
Box + 2 Pan, 22.5 m
Radar Cross Section
75.815 m², Large (>1 m²)

Expand to show TLE details & history
Last TLE update: 2 days ago

TLE from 2 days ago
0 EUTELSAT 10B
1 54259U 22157A   26171.32244802  .00000063  00000-0  00000+0 0  9992
2 54259   0.0633  97.3477 0001310   6.5284 290.7143  1.00266775 13055
Epoch: 2026-06-20T07:44Z
TLE epoch observation values (Epoch: 2026-06-20T07:44:19.508Z)
Latitude
-0.04265°
Longitude
9.96874°
Altitude
35,785.523 km
Speed
3.075 km/s
True Right ascension
02h 18m 21s
True Declination
0° 02' 33"
Sunlit
Object was in daylight at epoch
Visualization orbit readout
Latitude
Unknown
Longitude
Unknown
Altitude
Unknown
Speed
Unknown
Apparent Right ascension
Unknown
Apparent Declination
Unknown
Sunlit
N/A
Visualization observer readout
Local Sidereal Time
21:34:19
Azimuth
Unknown
Elevation
Unknown
Doppler factor
Unknown
Orbital elements
Apogee altitude
35,794.594 km
Perigee altitude
35,783.546 km
Semi-major axis
42,167.207 km
Eccentricity
0.00013
Inclination
0.0633°
RAAN
97.3477°
Arg. of periapsis
6.5284°
True anomaly
290.70026°
Mean anomaly
290.7143°
Eccentric anomaly
290.70728°
Mean motion
0.25066 °/min
Orbital period
1,436.22 mins
BSTAR
0
Loading maneuver chart data...
Computing Atmospheric mass density...
Loading historical data...
Loading historical data...
Loading historical data...
Loading historical data...
Loading historical data...
Loading historical data...
Loading historical data...
Other satellites on launch #157 in the year 2022 (2022-11-23 UTC)

Documentation

Showing up to 5 results
|